Location: Mauries
(43.6188°N, 0.3322°W)
Time: 02:45:54
(UTC+00:00)

ARIANE 6 FM1 Upper Stage - Visible Passes

Search period start: 06 March 2026 00:00
Search period end: 16 March 2026 00:00
Orbit: 523 x 607 km, 62.0° (Epoch: 5 March)

Date Brightness Start Highest point End Pass type
(mag) Time Alt. Az. Time Alt. Az. Time Alt. Az.
6 Mar 3.3 05:58:44 10° SSW 06:02:48 57° SE 06:06:46 10° NE visible
8 Mar 5.5 04:21:44 10° SSE 04:23:54 14° ESE 04:26:02 10° E visible
9 Mar 5.0 04:20:29 10° SSE 04:23:34 20° ESE 04:26:36 10° ENE visible
10 Mar 4.3 04:21:06 19° SSE 04:23:15 30° ESE 04:26:48 10° ENE visible
11 Mar 3.6 04:21:35 31° S 04:22:58 44° ESE 04:26:49 10° NE visible
12 Mar 2.8 04:21:55 52° S 04:22:41 66° SE 04:26:43 10° NE visible
13 Mar 2.4 04:22:06 73° WSW 04:22:27 85° NW 04:26:31 10° NE visible
14 Mar 2.7 04:22:10 58° NW 04:22:14 58° NW 04:26:14 10° NNE visible
15 Mar 5.8 02:46:09 12° ENE 02:46:09 12° ENE 02:46:30 10° ENE visible
15 Mar 3.2 04:22:09 41° NW 04:22:09 41° NW 04:25:53 10° NNE visible
